This is the latest recevied weather packets stored in our database for station/object N2XP-3. If no packets are shown the sender has not sent any weather packets the latest 10 day(s).
| Time | Temp. | Humidity | Pressure | Rain* | Wind** | Luminosity | Snow |
|---|---|---|---|---|---|---|---|
| 1777429651 | 12.78° C | 71% | 1014.9 hPa | 0 mm | 0 m/s | - | - |
| 1777429486 | 12.78° C | 71% | 1014.9 hPa | 0 mm | 0 m/s | - | - |
| 1777425852 | 13.33° C | 67% | 1015.2 hPa | 0 mm | 0 m/s | - | - |
| 1777424037 | 13.33° C | 67% | 1015.6 hPa | 0 mm | 0 m/s | - | - |
| 1777423637 | 13.33° C | 66% | 1015.6 hPa | 0 mm | 0 m/s | - | - |
| 1777423433 | 13.33° C | 66% | 1015.6 hPa | 0 mm | 0 m/s | - | - |
| 1777422525 | 13.89° C | 65% | 1015.6 hPa | 0 mm | 0 m/s | - | - |
| 1777422357 | 13.89° C | 65% | 1015.6 hPa | 0 mm | 0 m/s | - | - |
| 1777421615 | 13.89° C | 64% | 1015.5 hPa | 0 mm | 0 m/s | - | - |
| 1777419194 | 14.44° C | 61% | 1015.6 hPa | 0 mm | 0 m/s | - | - |
| 1777414659 | 16.11° C | 53% | 1015.8 hPa | 0 mm | 1.34 m/s, 235° | - | - |
| 1777413487 | 16.67° C | 53% | 1015.8 hPa | 0 mm | 0 m/s | - | - |
| 1777412065 | 17.22° C | 50% | 1016 hPa | 0 mm | 1.79 m/s, 181° | - | - |
| 1777410131 | 16.67° C | 50% | 1016 hPa | 0 mm | 1.34 m/s, 307° | - | - |
| 1777408311 | 17.78° C | 49% | 1016.1 hPa | 0 mm | 1.34 m/s, 242° | - | - |
| 1777407821 | 17.78° C | 48% | 1016 hPa | 0 mm | 0.89 m/s, 217° | - | - |
| 1777407700 | 17.78° C | 48% | 1016 hPa | 0 mm | 0.89 m/s, 217° | - | - |
| 1777407397 | 17.78° C | 48% | 1016 hPa | 0 mm | 0 m/s | - | - |
| 1777406487 | 18.33° C | 46% | 1016.3 hPa | 0 mm | 0.89 m/s, 257° | - | - |
| 1777405585 | 18.89° C | 45% | 1016.6 hPa | 0 mm | 1.34 m/s, 339° | - | - |
| 1777404978 | 18.89° C | 45% | 1016.7 hPa | 0 mm | 1.34 m/s, 135° | - | - |
| 1777404679 | 18.89° C | 46% | 1016.7 hPa | 0 mm | 0.89 m/s, 255° | - | - |
| 1777404377 | 18.89° C | 45% | 1016.7 hPa | 0 mm | 0.45 m/s, 187° | - | - |
| 1777404073 | 19.44° C | 46% | 1016.9 hPa | 0 mm | 0.45 m/s, 232° | - | - |
| 1777403773 | 18.89° C | 45% | 1016.9 hPa | 0 mm | 2.24 m/s, 298° | - | - |
* Rain latest hour (hover to see other rain measurements)
** Current wind speed in m/s (hover to see current wind gust speed)